User: anonymous   Login
Location: Glencliff
(36.1226°N, 86.7183°W)
Time: 09:11:20
(UTC+00:00)
Language:

Delta 2 Rocket - Orbit

View from above orbital plane
View from above orbital plane
View from above satellite
View from above satellite

Ground track
Ground track

The orbit data is extracted from the following two-line orbital elements,

1 20453U 90008B   19291.35141129  .00000904  00000-0  54342-4 0  9994
2 20453  35.6236 249.3225 0281628  76.2239 286.9649 14.85136063575035
Epoch (UTC): 18 October 2019 08:26:01
Eccentricity: 0.0281628
inclination: 35.6236°
perigee height: 416 km
apogee height: 810 km
right ascension of ascending node: 249.3225°
argument of perigee: 76.2239°
revolutions per day: 14.85136063
mean anomaly at epoch: 286.9649°
orbit number at epoch: 57503

The dashed part of the orbit path shows where the satellite is in the earth's shadow,  

DLR